Location: Newark
(44.2003°N, 3.2583°E)
Time: 08:20:26
(UTC+00:00)

Explorer 7 - Pass Details

Date: 20 October 2019
Orbit: 485 x 680 km, 50.3° (Epoch: 17 November)

Event Time Altitude Azimuth Distance (km) Brightness Sun altitude
Rises 18:21:40 0° 283° (WNW) 2,653 11.9 -16.2°
Reaches altitude 10° 18:24:56 10° 254° (WSW) 1,802 10.6 -16.8°
Maximum altitude 18:26:45 13° 228° (SW) 1,659 9.9 -17.1°
Drops below altitude 10° 18:28:35 10° 201° (SSW) 1,849 9.7 -17.4°
Sets 18:32:03 0° 173° (S) 2,795 10.3 -18.0°
